Location: Unspecified
(35.7250°N, 0.0000°E)
Time: 19:37:38
(UTC+00:00)

Courier 1B Rocket - Pass Details

Date: 19 August 2020
Orbit: 920 x 1202 km, 28.2° (Epoch: 01 October)

Event Time Altitude Azimuth Distance (km) Brightness Sun altitude
Exits shadow 03:16:27 29° 175° (S) 1,620 5.9 -23.6°
Drops below altitude 10° 03:20:51 10° 134° (SE) 2,668 7.4 -22.9°
Sets 03:23:49 0° 125° (SE) 3,649 8.2 -22.4°
